Regional Weather Roundup
Issued by NWS Pendleton, OR

Home | Current Version | Previous Version | Text Only | Print | Product List | Glossary On
Versions: 1 2 3 4 5 6 7 8 9 10 11 12 13 14 15 16 17 18 19 20 21 22 23 24 25 26 27 28 29 30 31 32 33 34 35 36 37 38 39 40 41 42 43 44 45 46 47 48 49 50
000
ASUS46 KPDT 311010
RWRPDT
PENDLETON REGIONAL WEATHER ROUNDUP
NATIONAL WEATHER SERVICE PENDLETON OREGON
300 AM PDT SUN JUL 31 2016

NOTE: FAIR INDICATES FEW OR NO CLOUDS BELOW 12,000 FEET WITH NO
SIGNIFICANT WEATHER AND/OR OBSTRUCTIONS TO VISIBILITY.

# INDICATES UNOFFICIAL STATION AND DATA

WAZ520-311110-
EAST SLOPES OF WASHINGTON CASCADES

CITY            SKY/WX      TMP DP  RH  WIND    PRES   REMARKS
#CLE ELUM HS    N/A         57  47  69  W7      29.86R
#CLE ELUM 2NW   N/A         56  46  69  SW5     N/A
#GLENWOOD       N/A         43  40  89  CALM    29.84R
#MANASTASH CYN  N/A         57  43  59  W1      29.84S
#NELSON 3SW     N/A         57  45  64  CALM    29.97R
#NILE           N/A         58  47  67  SW7G24  29.09R
#RONALD 2NW     N/A         57  N/A N/A NE1     29.97S
#TEANAWAY 4NE   N/A         59  50  72  N5      N/A
#TROUT LAKE 1NE N/A         58  43  57  SW10    29.84R
$$

WAZ521-311110-
SIMCOE HIGHLANDS

CITY            SKY/WX      TMP DP  RH  WIND    PRES   REMARKS
#CENTERVILLE 1SWN/A         56  44  64  N15     29.79R
#GOLDENDALE 1NE N/A         57  32  38  CALM    N/A
#GOLDENDALE 4W  N/A         58  50  75  W3      29.93S
#GOODNOE HILLS  N/A         62  44  52  NW23    29.76R
#LYLE 6NE       N/A         57  46  67  S16G26  29.81S
$$

WAZ026-311110-
KITTITAS VALLEY

CITY            SKY/WX      TMP DP  RH  WIND    PRES   REMARKS
ELLENSBURG AP   CLEAR       62  47  58  N12     29.85R
#ELLENSBURG CWU N/A         62  47  58  NW13    29.71R
#ELLENSBURG 3NE N/A         60  49  67  NE7     29.85R
#ELLENSBURG     N/A         65  49  56  NW7     N/A
#ELLENSBURG 1E  N/A         63  N/A N/A CALM    N/A
#KITTITAS 4N    N/A         59  47  64  W14     29.87R
#KITTITAS 3S    N/A         61  48  62  NW2     29.74S
#THORP 6N       N/A         58  47  67  W29G46  29.75R
$$

WAZ027-311110-
YAKIMA VALLEY

CITY            SKY/WX      TMP DP  RH  WIND    PRES   REMARKS
SUNNYSIDE AP    PTCLDY      59  49  69  CALM    29.82R
YAKIMA AIRPORT  CLEAR       69  40  35  N16     29.82S
YAKIMA-VAGABOND N/A         63  45  52  N6      29.83R
#DONALD 2NE     N/A         96  15   5  W3      28.56S HX 91
#GRANDVIEW      N/A         61  48  62  CALM    29.79R
#MABTON         N/A         61  45  56  S2      29.81R
#NACHES 2SW     N/A         62  48  60  W14     29.85R
#TERRACE HTS    N/A         63  47  56  CALM    29.73R
#TOPPENISH      N/A         63  49  60  CALM    29.70R
#WEST VALLEY    N/A         64  42  45  N5      29.74R
#WHITE SWAN 5E  N/A         58  45  62  E1      29.77R
#WILEY CITY 3W  N/A         50  37  61  CALM    29.80R
$$

WAZ028-311110-
LOWER COLUMBIA BASIN...WASHINGTON

CITY            SKY/WX      TMP DP  RH  WIND    PRES   REMARKS
PASCO           CLOUDY      69  48  47  S7      29.81R
PROSSER AWOS    N/A         59  48  67  CALM    29.85R
RICHLAND AWOS   CLOUDY      68  47  47  S3      29.80R
#BENTON CITY    N/A         68  47  47  SW3     29.67R
#CONNELL 5N     N/A         57  48  72  SW3     29.74R
#CONNELL 5NW    N/A         57  50  77  SW2     29.70R
#ELTOPIA 6NW    N/A         65  49  56  CALM    28.78R
#KAHLOTUS       N/A         62  47  58  W21     29.72R
#KENNEWICK 3S   N/A         63  49  60  N6      29.76R
#PATERSON       N/A         64  49  58  N1      29.78R
#SAGEMOOR 2W    N/A         66  48  52  SW2     29.62R
#TOUCHET 2S     N/A         67  44  43  W15G28  29.75R
#WEST PASCO     N/A         66  48  52  CALM    29.77R
$$

WAZ029-311110-
FOOTHILLS OF THE BLUES...WASHINGTON

CITY            SKY/WX      TMP DP  RH  WIND    PRES   REMARKS
WALLA WALLA AP  CLEAR       65  41  41  S12     29.86R
#CLYDE 6NW      N/A         59  47  64  SW3     29.74R
#DAYTON SCHOOL  N/A         67  37  33  S5      29.85R
#LOWDEN 2SE     N/A         67  46  47  W3      29.80R
#PLEASANT VIEW 1N/A         58  45  62  S8      29.76R
#PRESCOTT       N/A         64  47  54  CALM    29.76R
#WHITMAN COLLEGEN/A         67  45  45  CALM    29.83R
#WAITSBURG 5S   N/A         63  42  46  SW7     29.85R
#WAITSBURG 8N   N/A         61  15  16  S7      29.82R
#WALLA WALLA U  N/A         69  46  44  S1      29.78R
#WHITMAN MISSIONN/A         67  46  47  CALM    29.81R
$$

WAZ030-311110-
BLUE MOUNTAINS...WASHINGTON

CITY            SKY/WX      TMP DP  RH  WIND    PRES   REMARKS
#DIXIE 5SE      N/A         74  47  38  SW15    29.84R
$$

ORZ009-041-WAZ024-311110-
COLUMBIA RIVER GORGE

CITY            SKY/WX      TMP DP  RH  WIND    PRES   REMARKS
HOOD RIVER AP   CLEAR       57  48  72  NW16G31 29.95R
THE DALLES AP   CLEAR       62  45  54  NW22G30 29.89R
#ARLINGTON AIRPON/A         63  45  52  W10     29.83R
#MARYHILL 2W    N/A         64  43  46  W17     N/A
#MOSIER 1S      N/A         57  38  49  W14     29.88F
#MURDOCK        N/A         62  51  67  W14G28  29.86S
#RUFUS DOT      N/A         69  45  42  W23     N/A
#SMITHVILLE     N/A         61  48  62  W14     29.82R

$$

ORZ510-311110-
NORTH CENTRAL OREGON

CITY            SKY/WX      TMP DP  RH  WIND    PRES   REMARKS
#ANTELOPE       N/A         48  36  63  CALM    29.68S
#CHENOWITH 1W   N/A         54  45  71  NW32    N/A
#COW CYN RST AREN/A         60  N/A N/A W16     N/A
#DUFUR 9E       N/A         55  43  64  W6      29.87R
#GRASS VALLEY 1SN/A         52  41  66  SW3     29.89R
#KENT DOT       N/A         55  35  47  N12     N/A
#MAUPIN SCHOOL  N/A         63  47  56  SW3     29.94R
#SHANIKO 5WSW   N/A         56  30  37  N6      N/A
#SHANIKO 4NW    N/A         56  43  62  W7      29.97S
#TYGH VALLEY 2NEN/A         55  42  61  N1      29.84S
#WAPANITIA AIRPON/A         58  43  57  W7      29.84R
#WASCO DOT      N/A         59  47  64  SW5     N/A
#WASCO 5NE      N/A         57  44  62  W15G24  29.80R
$$

ORZ511-311110-
CENTRAL OREGON

CITY            SKY/WX      TMP DP  RH  WIND    PRES   REMARKS
BEND AIRPORT    CLEAR       55  37  51  SW9     29.99F
MADRAS AIRPORT  CLEAR       52  39  61  CALM    29.98S
PRINEVILLE AP   CLEAR       57  36  45  W7      29.99S
REDMOND AIRPORT CLEAR       48  31  51  CALM    29.99S
#ASHWOOD SCHOOL N/A         54  31  41  S3      29.93R
#BEND 1SW       N/A         50  38  63  CALM    N/A
#BEND-AWBREY    N/A         56  40  55  S8      29.81S
#CULVER         N/A         54  36  50  CALM    29.77R
#CULVER 8W      N/A         52  34  50  CALM    29.96F
#LAKE BILLY CHINN/A         57  N/A N/A CALM    30.02S
#MADRAS 4S      N/A         54  10  17  SW7     30.04S
#POWELL BUTTE 3EN/A         48  33  56  SE3     N/A
#POWELL BUTTE   N/A         53  35  50  SW1     29.87S
#PRINEVILLE 3N  N/A         46  37  71  E5      29.91R
#WARM SPRINGS   N/A         61  39  44  CALM    29.91S

$$


ORZ509-311110-
EAST SLOPES OF OREGON CASCADES

CITY            SKY/WX      TMP DP  RH  WIND    PRES   REMARKS
SISTERS AWOS    N/A         59  36  42  CALM    29.97S
#BLUE BOX PASS  N/A         46  N/A N/A NW6     N/A
#CAMP SHERMAN   N/A         57  39  51  CALM    29.90S
#LA PINE DOT    N/A         46  33  60  S1      N/A
#LA PINE 4NW    N/A         45  35  68  CALM    29.88R
#LAVA BUTTE DOT N/A         53  37  54  CALM    N/A
#SISTERS AIRPOR N/A         57  41  55  N2      30.17S
#SISTERS ODOT   N/A         59  N/A N/A W2      N/A
#SISTERS 3N     N/A         58  33  39  CALM    29.97S
#SUNRIVER       N/A         46  38  73  CALM    29.99R
#SUTTLE LK DOT  N/A         50  41  71  N13     N/A
#TUMALO 3W      N/A         54  35  48  SW6     29.70S
#WANOGA BUTTE D N/A         57  23  27  NE1     N/A

$$

ORZ044-311110-
LOWER COLUMBIA BASIN...OREGON

CITY            SKY/WX      TMP DP  RH  WIND    PRES   REMARKS
HERMISTON       CLEAR       66  42  42  W14     29.83R
#BOARDMAN 8SW   N/A         64  46  52  SW8     29.82R
#ECHO 8SW       N/A         66  39  37  W9      29.85R
#I-84 EX 198 DOTN/A         66  42  42  E18     N/A
#UMATILLA       N/A         66  44  45  SW7     29.74R
$$

ORZ507-311110-
NORTHERN FOOTHILLS OF THE BLUES

CITY            SKY/WX      TMP DP  RH  WIND    PRES   REMARKS
PENDLETON AIRPT CLEAR       63  35  35  CALM    29.87R
#ADAMS 3WNW     N/A         59  40  49  CALM    29.79R
#ATHENA         N/A         62  41  46  CALM    29.80R
#CAYUSE         N/A         60  42  51  E3      29.79R
#HELIX SCHOOL   N/A         62  40  44  W7      29.77R
#HELIX 3N       N/A         60  39  46  N15     29.85R
#HOLDMAN 5SE    N/A         63  40  43  W6      29.86R
#HOLDMAN 6E     N/A         61  39  44  N9      29.60R
#M-F GROVE ELEM N/A         66  38  36  CALM    29.83R
#M-FREEWATER 5SEN/A         66  42  42  S2      29.86R
#PENDLETON DNTN N/A         66  34  30  CALM    29.89R
#PDT AQUATIC CTRN/A         67  33  28  CALM    29.65S
#PDT SUNRIDGE   N/A         61  37  41  CALM    29.88R
#PENDLETON 7NW  N/A         63  40  43  W7      31.86S
#PILOT ROCK     N/A         60  30  32  E1      29.91R
#TUTUILLA       N/A         52  37  56  CALM    29.82R
#UMAPINE 2E     N/A         66  46  48  CALM    29.82R
#WESTON SCHOOL  N/A         61  36  39  N5      29.74R

$$

ORZ508-311110-
SOUTHERN FOOTHILLS OF THE BLUES

CITY            SKY/WX      TMP DP  RH  WIND    PRES   REMARKS
LEXINGTON       CLEAR       64  30  28  SW10    29.91S
#CONDON 5W      N/A         57  32  38  SW7     29.91S
#HEPPNER EOC    N/A         63  28  26  SE2     29.73R
#HEPPNER 4NE    N/A         62  29  28  SW6     29.77R
#LEXINGTON 2SE  N/A         65  32  29  SW7     29.85R
#OLEX 4N        N/A         65  37  35  W12G24  29.85R
#RUGGS 5NE      N/A         60  21  22  SW3     30.07
#RUGGS 2SW      N/A         60  26  27  SW5     29.79R

$$

ORZ502-503-311110-
BLUE MOUNTAINS

CITY            SKY/WX      TMP DP  RH  WIND    PRES   REMARKS
#BATTLE MTN DOT N/A         57  27  31  CALM    N/A
#CUTSFORTH PARK N/A         45  32  60  CALM    29.75S
#GREENHORN 9SW  N/A         44  28  53  CALM    26.18S
#HARDMAN 10S    N/A         61  34  36  N5      30.22S
#HEPPNER 15SE   N/A         54  23  30  CALM    29.88S
#LADD CYN SMT   N/A         56  28  34  W3      N/A
#LADD CREEK ODOTN/A         55  31  40  SW2     N/A
#N POWDER DOT   N/A         58  33  39  N8      N/A
#PIKES PEAK     N/A         58  38  47  SW22G30 27.99S
#TOLLGATE       N/A         51  38  61  CALM    29.85R
#TROY SCHOOL    N/A         63  47  56  CALM    29.58R
#UKIAH          N/A         56  29  35  CALM    29.71R
#WESTON 4E      N/A         57  37  47  SW5     29.71R
$$

ORZ505-311110-
JOHN DAY BASIN

CITY            SKY/WX      TMP DP  RH  WIND    PRES   REMARKS
JOHN DAY        CLEAR       60  26  27  SW6     29.98R
#DAYVILLE SCHOOLN/A         61  26  26  CALM    29.92R
#MITCHELL       N/A         52  32  46  CALM    30.14R
#MITCHELL 8NW   N/A         61  23  23  CALM    29.97S
#MONUMENT HS    N/A         56  27  33  CALM    29.80R
#MT. VERNON 5SE N/A         56  23  28  CALM    29.94R
#SPRAY SCHOOL   N/A         56  N/A N/A CALM    N/A
$$

ORZ506-311110-
OCHOCO AND JOHN DAY HIGHLANDS

CITY            SKY/WX      TMP DP  RH  WIND    PRES   REMARKS
#BUCK CREEK DOT N/A         61  28  28  NW7     N/A
#HORSE RIDGE DO N/A         42  30  62  CALM    N/A
#KEYES SMT DOT  N/A         57  28  33  NW7     N/A
#PAULINA SCHOOL N/A         56  22  26  SW6     N/A
#PINE MTN OBS   N/A         53  21  28  CALM    N/A
#SENECA         N/A         48  N/A N/A CALM    N/A
#SENECA 9NW     N/A         45  25  45  CALM    29.74R
$$

ORZ049-311110-
GRANDE RONDE VALLEY

CITY            SKY/WX      TMP DP  RH  WIND    PRES   REMARKS
LA GRANDE       CLEAR       57  25  29  CALM    29.89S
#COVE SCHOOL    N/A         56  36  47  E2      29.93S
#ELGIN 3N       N/A         67  30  25  W3      29.88R
#ELGIN 1E       N/A         59  35  40  CALM    N/A
#IMBLER SCHOOL  N/A         56  37  49  CALM    29.86R
#ISLAND CITY 4N N/A         57  52  83  CALM    30.04R
#LADD CYN DOT   N/A         59  31  34  SE10    N/A
#UNION 1S       N/A         60  36  41  N1      29.65S
$$

ORZ050-311110-
WALLOWA COUNTY

CITY            SKY/WX      TMP DP  RH  WIND    PRES   REMARKS
JOSEPH AIRPORT  CLEAR       48  34  58  SW3     N/A
#ENTERPRISE AP  N/A         49  29  46  CALM    29.87R
#ENTERPRISE HS  N/A         47  38  71  CALM    29.94R
#IMNAHA SCHOOL  N/A         60  41  49  S2      29.85R
#IMNAHA 10S     N/A         59  34  39  S3      29.89R
#JOSEPH 3N      N/A         43  35  73  NE1     29.96R
#JOSEPH 3W      N/A         53  31  43  SW1     29.81S
#LOSTINE        N/A         49  37  63  CALM    29.55R
#LOSTINE 3SE    N/A         48  33  56  SW3     29.91R
#MT HOWARD 8000 N/A         55  11  17  S7      30.14S
#PROMISE 1S     N/A         60  40  47  E5      29.80S
#WALLOWA SCHOOL N/A         59  36  42  CALM    29.86R



$$



USA.gov is the U.S. government's official web portal to all federal, state and local government web resources and services.